カタログに戻る

YUXING 3-05

運用中科学SSO
NORAD 68204·PAYLOAD·🇨🇳 China
この衛星名は、まだ公式ソースで確認されていません。

打ち上げ Mar 16, 2026 から Jiuquan Satellite Launch Center

Loading…

次のパス (今後24時間)

TLE

最新Source: Space-Track

元期: Sep 14, 2026, 11:08 UTC

1 68204U 26052G   26257.46416176  .00003259  00000-0  19180-3 0  9993
2 68204  97.5258 331.0844 0010172  10.6598 349.4846 15.12306709 27541

AllMySatでYUXING 3-05をリアルタイム追跡

Download on the App Store